TimeCST,TemperatureF,Dew PointF,Humidity,Sea Level PressureIn,VisibilityMPH,Wind Direction,Wind SpeedMPH,Gust SpeedMPH,PrecipitationIn,Events,Conditions,WindDirDegrees,DateUTC
12:52 AM,23.0,21.9,96,30.17,10.0,WNW,4.6,-,N/A,,Clear,300,2013-11-06 06:52:00
1:52 AM,21.0,19.0,92,30.15,10.0,NNW,3.5,-,N/A,,Clear,330,2013-11-06 07:52:00
2:52 AM,24.1,21.0,88,30.14,10.0,WSW,4.6,-,N/A,,Clear,250,2013-11-06 08:52:00
3:52 AM,24.1,21.0,88,30.13,10.0,Calm,Calm,-,N/A,,Clear,0,2013-11-06 09:52:00
4:52 AM,25.0,21.9,88,30.13,10.0,WSW,4.6,-,N/A,,Mostly Cloudy,240,2013-11-06 10:52:00
5:52 AM,24.1,21.0,88,30.14,10.0,Calm,Calm,-,N/A,,Overcast,0,2013-11-06 11:52:00
6:04 AM,23.0,21.2,93,30.07,10.0,SSW,8.1,-,N/A,,Overcast,200,2013-11-06 12:04:00
6:13 AM,23.0,21.2,93,30.07,10.0,SSW,8.1,-,N/A,,Overcast,210,2013-11-06 12:13:00
6:25 AM,21.2,19.4,93,30.07,10.0,SSW,8.1,-,N/A,,Overcast,210,2013-11-06 12:25:00
6:38 AM,21.2,19.4,93,30.06,4.0,South,5.8,-,N/A,,Overcast,190,2013-11-06 12:38:00
6:52 AM,21.9,21.0,96,30.14,4.0,South,5.8,-,0.00,Snow,Light Snow,190,2013-11-06 12:52:00
7:01 AM,21.2,21.2,100,30.06,1.8,South,8.1,-,0.00,Snow,Light Snow,180,2013-11-06 13:01:00
7:11 AM,21.2,21.2,100,30.06,3.0,South,8.1,-,0.00,,Overcast,190,2013-11-06 13:11:00
7:52 AM,21.9,21.0,96,30.14,10.0,SSW,8.1,-,0.00,,Overcast,200,2013-11-06 13:52:00
8:52 AM,21.9,21.0,96,30.15,9.0,South,10.4,-,N/A,,Overcast,190,2013-11-06 14:52:00
9:52 AM,25.0,24.1,96,30.14,10.0,SSW,9.2,-,N/A,,Overcast,200,2013-11-06 15:52:00
10:50 AM,26.6,26.6,100,30.06,10.0,SW,6.9,-,N/A,,Overcast,220,2013-11-06 16:50:00
10:52 AM,27.0,26.1,96,30.14,10.0,SW,6.9,-,N/A,,Overcast,230,2013-11-06 16:52:00
11:50 AM,30.2,26.6,86,30.06,10.0,WSW,5.8,-,N/A,,Overcast,240,2013-11-06 17:50:00
11:52 AM,30.9,26.1,82,30.13,10.0,SW,6.9,-,N/A,,Mostly Cloudy,230,2013-11-06 17:52:00
12:10 PM,32.0,26.6,80,30.06,10.0,West,3.5,-,N/A,,Scattered Clouds,280,2013-11-06 18:10:00
12:52 PM,36.0,27.0,70,30.10,10.0,Calm,Calm,-,N/A,,Clear,0,2013-11-06 18:52:00
1:52 PM,41.0,28.0,60,30.10,10.0,Calm,Calm,-,N/A,,Clear,0,2013-11-06 19:52:00
2:52 PM,44.1,24.1,45,30.10,10.0,WSW,5.8,-,N/A,,Clear,250,2013-11-06 20:52:00
3:52 PM,46.0,19.0,34,30.10,10.0,NNW,11.5,-,N/A,,Clear,330,2013-11-06 21:52:00
4:52 PM,37.0,19.9,50,30.13,10.0,North,5.8,-,N/A,,Clear,350,2013-11-06 22:52:00
5:52 PM,34.0,21.0,59,30.14,10.0,NE,8.1,-,N/A,,Clear,50,2013-11-06 23:52:00
6:52 PM,30.0,21.0,69,30.16,10.0,SSE,3.5,-,N/A,,Scattered Clouds,150,2013-11-07 00:52:00
7:52 PM,28.0,21.9,78,30.18,10.0,Calm,Calm,-,N/A,,Clear,0,2013-11-07 01:52:00
8:52 PM,25.0,23.0,92,30.21,10.0,NNW,5.8,-,N/A,,Clear,340,2013-11-07 02:52:00
9:52 PM,30.9,21.9,69,30.22,10.0,NW,12.7,-,N/A,,Clear,320,2013-11-07 03:52:00
10:52 PM,30.0,21.0,69,30.25,10.0,NW,11.5,-,N/A,,Clear,310,2013-11-07 04:52:00
11:52 PM,28.0,21.0,75,30.27,10.0,NW,11.5,-,N/A,,Clear,320,2013-11-07 05:52:00